Location: Bukit Nyuki
(2.5885°N, 113.7476°E)
Time: 06:37:09
(UTC+00:00)

Cosmos 1461 - Pass Details

Date: 18 May 2021
Orbit: 510 x 653 km, 65.0° (Epoch: 22 June)

Event Time Altitude Azimuth Distance (km) Brightness Sun altitude
Rises 12:05:51 0° 204° (SSW) 2,906 6.5 -23.5°
Reaches altitude 10° 12:08:06 10° 206° (SSW) 2,015 5.7 -24.0°
Maximum altitude 12:12:41 77° 291° (WNW) 664 3.2 -25.1°
Drops below altitude 10° 12:17:21 10° 17° (NNE) 2,048 5.8 -26.1°
Sets 12:19:39 0° 19° (NNE) 2,958 6.6 -26.7°
